Regional Weather Roundup
Issued by NWS

Home | Current Version | Previous Version | Graphics & Text | Print | Product List | Glossary On
Versions: 1 2 3 4 5 6 7 8 9 10 11 12 13 14 15 16 17 18 19 20 21 22 23 24 25 26 27 28 29 30 31 32 33 34 35 36 37 38 39 40 41 42 43 44 45 46 47 48 49 50
000
ASUS45 KCYS 242010
RWRWY

WYOMING REGIONAL WEATHER ROUNDUP
NATIONAL WEATHER SERVICE CHEYENNE WY
200 PM MDT SUN JUL 24 2016

NOTE:  "FAIR" INDICATES FEW OR NO CLOUDS BELOW 12,000 FEET
WITH NO SIGNIFICANT WEATHER AND/OR OBSTRUCTIONS TO VISIBILITY.

WYZ001-242100-
YELLOWSTONE NATIONAL PARK

CITY           SKY/WX    TMP DP  RH WIND       PRES   REMARKS
LK YELLOWSTONE   N/A     73  28  18 VRB7G16   30.36F
W YELLOWSTONE  NOT AVBL

$$
WYZ002>013-054>058-071-098>099-242100-
NORTHERN WYOMING

CITY           SKY/WX    TMP DP  RH WIND       PRES   REMARKS
JACKSON        SUNNY     79  27  14 S7        30.25F
CODY           FAIR      81  39  22 E7        30.15F
GREYBULL       FAIR      85  37  18 VRB3      30.08F
WORLAND        FAIR      87  38  17 N8        30.09F
SHERIDAN       FAIR      89  39  17 MISG      30.08F
BUFFALO        FAIR      84  40  21 SE16G29   30.16F
GILLETTE       FAIR      84  44  24 S15G26    30.14F
HULETT         FAIR      82  43  24 W7        30.16F
NEWCASTLE      FAIR      84  36  17 S18G29    30.17F

$$
WYZ014>020-022>026-101>103-242100-
CENTRAL WYOMING

CITY           SKY/WX    TMP DP  RH WIND       PRES   REMARKS
BIG PINEY      FAIR      81  28  14 VRB3      30.28F
PINEDALE       FAIR      79  27  14 NW9       30.31S
DUBOIS         FAIR      79  23  12 CALM      30.27F
LANDER         FAIR      81  39  22 VRB3      30.18F
RIVERTON       FAIR      83  36  18 E9        30.18F
CASPER         FAIR      81  42  25 VRB5      30.18F
DOUGLAS          N/A    N/A N/A N/A MISG      30.16F

$$
WYZ021-027>030-104>119-242100-
SOUTHERN WYOMING

CITY           SKY/WX    TMP DP  RH WIND       PRES   REMARKS
EVANSTON       FAIR      84  17   8 W16G29    30.29F
KEMMERER         N/A     81  19  10 W13G22    30.31S
ROCK SPRINGS   FAIR      86  19   8 NW14      30.26F
DIXON          FAIR      86  33  15 W7        30.26F
RAWLINS        FAIR      84  21  10 SW12G21   30.27F
SARATOGA       FAIR      82  28  14 N12G17    30.29F
LARAMIE        FAIR      76  33  21 N9        30.29S
CHEYENNE       FAIR      76  52  43 SE8       30.23S
TORRINGTON     FAIR      87  49  26 SE15G31   30.11F
PINE BLUFFS    FAIR      82  55  39 S8G16     30.21R

$$



USA.gov is the U.S. government's official web portal to all federal, state and local government web resources and services.